[[{"header":{"parameterUnit":"m.s-1","parameterCategory":1,"la1":30.2991,"la2":30.254,"lo1":-89.0895,"lo2":-89.0444,"dy":0.0017,"dx":0.0017,"nx":28,"ny":28,"refTime":"2023-07-18T03:00:00:Z","depth":0,"parameterNumber":2,"parameterNumberName":"U-component_of_WINDS"},"data":[0,0,0,0,0,0,0,0,0,0,0,0,0,0,0,0,0,0,0,0,0,0,0,0,0,0,0,0,0,0,0,0,0,0,0,0,0,0,0,0,0,0,0,0,0,0,0,0,0,0,0,0,0,0,0,0,0,0,0.8976,0.8978,0,0.9194,0.9197,0.9199,0.9245,0.9243,0.9242,0.924,0.9466,0.9473,0.948,0,0,0,0,0,0,0,0,0,0,0,0,0,0.8601,0.8608,0.8975,0.8978,0.8981,0.9194,0.9197,0.92,0.9245,0.9243,0.9241,0.9239,0.9463,0.9472,0.9481,0,0,0,0,0,0,0,0,0,0,0,0,0,0.8786,0.861,0.8975,0.9029,0.9036,0.9193,0.9197,0.9201,0.9246,0.9243,0.9241,0.9238,0.946,0.9471,0.9482,0.9601,0,0,0.9517,0.9522,0,0,0,0,0,0,0,0,0.8775,0.88,0.9018,0.9026,0.9034,0.919,0.9148,0.9335,0.9246,0.9166,0.924,0.9237,0.9376,0.9394,0.9441,0.9612,0.9622,0.9518,0.9525,0.953,0.9533,0,0,0,0,0,0,0,0.8763,0.8791,0.9062,0.9022,0.9031,0.9044,0.9067,0.9183,0.9282,0.9173,0.9177,0.9202,0.938,0.943,0.9446,0.9625,0.9518,0.9528,0.9535,0.9539,0.9909,0.9912,0,0,0,0,0,0,0.874,0.878,0.9055,0.9069,0.8896,0.9053,0.9079,0.9142,0.9281,0.93,0.9204,0.9203,0.9411,0.9433,0.9454,0.9605,0.953,0.954,0.9547,0.9906,0.991,0.9913,0,0,0,0,0,0,0.8732,0.8764,0.9046,0.8925,0.8962,0.9062,0.9132,0.9148,0.9198,0.9304,0.9323,0.9236,0.941,0.9438,0.9565,0.9614,0.9545,0.9556,0.9903,0.9907,0.9912,0.9906,0,0,0,0,0,0,0.8721,0.8761,0.8806,0.8926,0.8968,0.9152,0.9135,0.9154,0.9217,0.9218,0.934,0.9357,0.9411,0.9548,0.9577,0.9628,0.9564,0.9899,0.9905,0.991,0.9903,0.991,0.9917,0,0,0,0,0,0.8707,0.8795,0.8808,0.8841,0.9027,0.9155,0.9179,0.9238,0.922,0.9268,0.9337,0.9354,0.9604,0.9561,0.9593,0.9649,0.9896,0.9903,0.991,0.9899,0.9909,0.9916,0,0,0,0,0,0,0.8677,0.8811,0.8827,0.8956,0.9044,0.9162,0.9223,0.9245,0.934,0.9337,0.9407,0.9434,0.9558,0.9616,0.9566,0.9773,0.9749,0.9763,0.973,0.974,0.9747,0.973,0.9574,0,0,0,0,0,0.8686,0.8778,0.889,0.8994,0.9037,0.9122,0.918,0.9218,0.9312,0.9349,0.9428,0.9519,0.9619,0.9682,0.978,0.9912,0.994,0.9966,0.9973,0.9978,0.9989,1.0067,1.008,0.9936,0.9936,0.9936,0,0,0.8704,0.8789,0.8842,0.899,0.9062,0.9158,0.9153,0.9253,0.9325,0.9365,0.949,0.9551,0.9658,0.9788,0.985,0.9841,1.0036,0.9987,0.999,0.9999,1.0075,1.0089,1.0101,0.9941,0.994,0.9939,0,0,0.8786,0.8859,0.8954,0.9027,0.9137,0.9194,0.9217,0.9334,0.9376,0.9502,0.9535,0.9622,0.9791,0.9867,0.9927,1.0043,1.0063,1.0073,1.0109,1.0183,1.0195,1.0205,1.0248,1.0263,1.0083,1.0083,1.0083,0,0.8795,0.8939,0.9,0.91,0.9165,0.9206,0.9305,0.9373,0.9509,0.9554,0.9542,0.9757,0.9832,0.9982,1.0011,1.0058,1.0088,1.0059,1.0188,1.0199,1.021,1.0252,1.0268,1.0084,1.0084,1.0084,1.0084,0,0.8946,0.9045,0.9109,0.9241,0.9313,0.9411,0.949,0.9556,0.9589,0.9648,0.9778,0.9869,0.9987,1.0026,1.0058,1.0182,1.0173,1.0174,1.0151,1.0223,1.0264,1.028,1.0085,1.0084,1.0084,1.0084,0,0,0.9012,0.9179,0.9202,0.9263,0.9389,0.9468,0.957,0.9686,0.9743,0.9836,0.9925,1.0069,1.0071,1.014,1.0182,1.0247,1.0336,1.024,1.0244,1.0256,1.0481,1.048,1.0497,1.035,1.0353,1.0356,1.0472,0,0.9111,0.9293,0.9353,0.9506,0.96,0.9643,0.9732,0.982,0.9879,0.9969,1.0034,1.0136,1.013,1.0172,1.0239,1.031,1.0382,1.0303,1.0435,1.0438,1.0407,1.0518,1.0517,1.0623,1.0489,1.0491,1.0493,0,0.9249,0.9346,0.9508,0.9626,0.9668,0.9746,0.9859,0.9944,1.0046,1.0085,1.0163,1.0201,1.0312,1.0283,1.0437,1.0382,1.044,1.0484,1.049,1.0505,1.047,1.0537,1.0658,1.0674,1.0519,1.0516,1.0515,0,0.9284,0.9455,0.9575,0.9626,0.9766,0.9821,0.9882,0.9982,1.0048,1.0147,1.0192,1.0302,1.0363,1.0449,1.0516,1.0489,1.0666,1.0642,1.0702,1.0701,1.0737,1.0734,1.0869,1.0773,1.0773,1.0773,1.0772,0,0.9388,0.9486,0.9593,0.9666,0.9778,0.9848,0.9957,1.0021,1.011,1.0198,1.0242,1.0324,1.0408,1.0502,1.0555,1.0677,1.0703,1.0739,1.0752,1.0735,1.0731,1.0774,1.0769,1.0777,1.0776,1.0775,1.0774,0,0.9445,0.952,0.9654,0.9777,0.981,0.9887,0.9993,1.0067,1.0129,1.024,1.027,1.0368,1.0481,1.0557,1.0701,1.0738,1.087,1.0881,1.0835,1.0842,1.0898,1.0892,1.1067,1.1094,1.0978,1.0979,1.098,0,0.9506,0.9583,0.9714,0.9777,0.9838,0.9938,1.0007,1.0079,1.015,1.0274,1.0334,1.045,1.0547,1.0726,1.0811,1.0922,1.0937,1.0991,1.0954,1.0936,1.094,1.0935,1.0944,1.0996,1.0997,1.0998,1.0999,0,0.9608,0.9642,0.974,0.9852,0.9933,1.0025,1.0117,1.0166,1.0255,1.0332,1.0449,1.0524,1.0673,1.0789,1.0909,1.0974,1.1002,1.101,1.103,1.1014,1.0985,1.1003,1.0852,1.1005,1.1005,1.1004,1.1004,1.1004,0.967,0.9741,0.9846,0.9954,1.0031,1.0117,1.0194,1.0266,1.0365,1.0491,1.0529,1.0651,1.0755,1.092,1.0987,1.1084,1.1079,1.1108,1.1115,1.1122,1.1122,1.0969,1.1106,1.1106,1.1106,1.1106,1.1106,0,0.9775,0.9845,0.9944,1.0072,1.0158,1.0178,1.0282,1.0353,1.046,1.0554,1.065,1.0785,1.0899,1.0993,1.1111,1.1171,1.1187,1.12,1.1196,1.1211,1.1119,1.1091,1.1185,1.1185,1.1185,1.1185,1.1185,1.1185,0.9839,0.9962,1.0009,1.0172,1.0242,1.0362,1.042,1.05,1.0576,1.0726,1.0821,1.0882,1.0978,1.1103,1.1209,1.1234,1.1276,1.1286,1.1314,1.1226,1.1217,1.1209,1.1182,1.1294,1.1294,1.1398,1.1398,1.1399]},{"header":{"parameterUnit":"m.s-1","parameterCategory":1,"la1":30.2991,"la2":30.254,"lo1":-89.0895,"lo2":-89.0444,"dy":0.0017,"dx":0.0017,"nx":28,"ny":28,"refTime":"2023-07-18T03:00:00:Z","depth":0,"parameterNumber":3,"parameterNumberName":"V-component_of_WINDS"},"data":[0,0,0,0,0,0,0,0,0,0,0,0,0,0,0,0,0,0,0,0,0,0,0,0,0,0,0,0,0,0,0,0,0,0,0,0,0,0,0,0,0,0,0,0,0,0,0,0,0,0,0,0,0,0,0,0,0,0,0.917,0.9171,0,0.9266,0.9267,0.9268,0.9219,0.9217,0.9214,0.9212,0.9312,0.9317,0.9322,0,0,0,0,0,0,0,0,0,0,0,0,0,0.8947,0.8952,0.917,0.9171,0.9172,0.9265,0.9267,0.9268,0.922,0.9217,0.9214,0.9211,0.931,0.9316,0.9322,0,0,0,0,0,0,0,0,0,0,0,0,0,0.9044,0.8953,0.917,0.916,0.916,0.9265,0.9267,0.9268,0.9221,0.9217,0.9213,0.9209,0.9308,0.9315,0.9323,0.9445,0,0,0.9346,0.9349,0,0,0,0,0,0,0,0,0.9038,0.9052,0.916,0.916,0.9161,0.9227,0.9225,0.9328,0.9222,0.9198,0.9212,0.9208,0.9287,0.9296,0.9322,0.9449,0.9454,0.9346,0.9351,0.9354,0.9356,0,0,0,0,0,0,0,0.9032,0.9048,0.9208,0.9162,0.9162,0.9151,0.916,0.9244,0.9262,0.9199,0.9196,0.9208,0.9286,0.9315,0.9324,0.9455,0.9346,0.9353,0.9358,0.936,0.9687,0.9691,0,0,0,0,0,0,0.9025,0.9042,0.9205,0.9211,0.9089,0.9158,0.9168,0.9209,0.9261,0.9265,0.9211,0.9205,0.9304,0.9315,0.9327,0.9473,0.9354,0.9361,0.9365,0.9683,0.9688,0.9692,0,0,0,0,0,0,0.9021,0.904,0.9201,0.9126,0.9145,0.9166,0.9212,0.9213,0.9242,0.927,0.9273,0.9237,0.9301,0.9317,0.9416,0.9476,0.9365,0.9371,0.9678,0.9684,0.969,0.9765,0,0,0,0,0,0,0.9014,0.9039,0.9085,0.9127,0.9149,0.9288,0.9216,0.9218,0.9255,0.9248,0.9295,0.9299,0.93,0.9405,0.9423,0.9484,0.9377,0.9672,0.9681,0.9688,0.9758,0.9773,0.9787,0,0,0,0,0,0.9007,0.9103,0.9088,0.9108,0.9208,0.9291,0.9304,0.9302,0.926,0.9306,0.9324,0.9298,0.9466,0.9415,0.9436,0.95,0.9669,0.9678,0.9687,0.9751,0.977,0.9787,0,0,0,0,0,0,0.9068,0.9108,0.9092,0.9204,0.9245,0.9283,0.9342,0.9323,0.9376,0.9368,0.9363,0.9375,0.9477,0.9498,0.9441,0.962,0.9561,0.9575,0.9602,0.9621,0.9635,0.9628,0.9383,0,0,0,0,0,0.9095,0.9159,0.919,0.9287,0.9308,0.9322,0.9358,0.9353,0.9394,0.9411,0.9437,0.9479,0.9541,0.9582,0.9641,0.976,0.977,0.9814,0.9829,0.9841,0.9853,0.9917,0.9937,0.9723,0.9723,0.9723,0,0,0.915,0.918,0.9221,0.93,0.933,0.9397,0.9336,0.9409,0.9459,0.9423,0.9517,0.9537,0.9584,0.9694,0.9743,0.9714,0.9914,0.9853,0.9862,0.9868,0.9929,0.9949,0.9967,0.9729,0.9728,0.9727,0,0,0.9286,0.9315,0.9398,0.943,0.9477,0.9485,0.9505,0.9546,0.9558,0.9653,0.9627,0.9686,0.9793,0.9828,0.9859,1.0007,0.9985,1.0027,1.0103,1.0166,1.0183,1.0198,1.025,1.0269,1.0039,1.0039,1.0039,0,0.9349,0.9448,0.9444,0.9519,0.9554,0.9524,0.9608,0.9639,0.9704,0.9729,0.9696,0.9829,0.9859,0.9976,1.0012,1.0038,1.0061,1.0021,1.0181,1.0196,1.021,1.026,1.0279,1.0044,1.0043,1.0042,1.0042,0,0.9524,0.9593,0.9655,0.9716,0.9759,0.9838,0.9846,0.989,0.9881,0.9893,0.999,1.0024,1.0089,1.0116,1.0109,1.0232,1.0213,1.0181,1.0121,1.0235,1.0282,1.0301,1.005,1.0049,1.0047,1.0046,0,0,0.9701,0.9758,0.9781,0.9809,0.9858,0.9912,0.999,1.0053,1.009,1.0135,1.0201,1.0292,1.0262,1.0298,1.0294,1.0349,1.0464,1.031,1.0311,1.0337,1.0602,1.0626,1.0648,1.0449,1.0453,1.0456,1.0598,0,0.9839,0.9975,0.9973,1.0099,1.0163,1.0135,1.0203,1.0241,1.0255,1.0311,1.0326,1.039,1.0346,1.0368,1.0421,1.0439,1.0517,1.0429,1.051,1.0513,1.0499,1.0672,1.0698,1.083,1.0616,1.0619,1.0622,0,1.0019,1.0069,1.0202,1.0241,1.0268,1.0329,1.0386,1.0441,1.0483,1.0489,1.0529,1.0516,1.0596,1.0534,1.0644,1.0584,1.0617,1.0631,1.0636,1.0643,1.0574,1.0684,1.0872,1.0892,1.065,1.0648,1.0646,0,1.0134,1.0235,1.0327,1.0352,1.04,1.0444,1.0466,1.0505,1.0543,1.0593,1.0618,1.0677,1.071,1.0756,1.076,1.0715,1.087,1.0809,1.0877,1.0877,1.0911,1.0909,1.1107,1.0934,1.0933,1.0933,1.0932,0,1.0288,1.037,1.0379,1.0436,1.0527,1.0524,1.0615,1.0633,1.0668,1.0728,1.0708,1.0765,1.0766,1.0825,1.0828,1.0918,1.0933,1.094,1.094,1.0942,1.0941,1.0964,1.0954,1.0938,1.0937,1.0936,1.0935,0,1.0432,1.0441,1.054,1.0578,1.0589,1.0655,1.0688,1.0742,1.0753,1.0829,1.0847,1.0865,1.0933,1.0941,1.102,1.1022,1.1131,1.1121,1.1116,1.1114,1.1182,1.1175,1.1401,1.1431,1.1238,1.124,1.1242,0,1.053,1.0592,1.0637,1.0675,1.07,1.0762,1.0801,1.08,1.0841,1.0894,1.0942,1.1007,1.1059,1.1169,1.1189,1.1249,1.1241,1.1316,1.125,1.1249,1.1241,1.1237,1.1243,1.1328,1.1331,1.1332,1.1334,0,1.0702,1.0704,1.0759,1.0817,1.0864,1.0909,1.0952,1.0985,1.099,1.1037,1.1105,1.1146,1.1226,1.1291,1.1351,1.1374,1.1355,1.1354,1.1373,1.1375,1.137,1.1373,1.115,1.1349,1.1347,1.1346,1.1346,1.1345,1.0826,1.088,1.0919,1.0982,1.1014,1.1055,1.1107,1.1125,1.1182,1.1247,1.1243,1.1319,1.136,1.1437,1.1465,1.1524,1.1499,1.1527,1.1534,1.154,1.1547,1.1361,1.1535,1.1534,1.1534,1.1534,1.1533,0,1.0997,1.1021,1.1079,1.1139,1.1188,1.1166,1.1212,1.1255,1.1321,1.1361,1.1412,1.1491,1.1554,1.1579,1.1641,1.1683,1.1676,1.1699,1.1696,1.1702,1.1566,1.1543,1.1704,1.1704,1.1704,1.1704,1.1704,1.1704,1.1091,1.1181,1.1188,1.1293,1.1317,1.139,1.1419,1.1456,1.1487,1.1576,1.1628,1.1643,1.1677,1.1741,1.1798,1.1804,1.1827,1.1854,1.1856,1.1729,1.1711,1.1695,1.1673,1.1859,1.186,1.1987,1.1988,1.1989]}]]